When you browse on this site, cookies collect data to enhance your experience and personalize the content and advertising you see.
Visit our Privacy Policy to learn more. By continuing to use the site, you agree to this use of cookies and data.

Hourly Weather Sederot

Today, 10 August, Monday

Time Temperature Precipitation Wind Pressure Humidity
00:00 +24°C° 0 mm 2 mps 746 mmHg 84%
01:00 +24°C° 0 mm 2 mps 746 mmHg 84%
02:00 +24°C° 0 mm 2 mps 746 mmHg 84%
03:00 +24°C° 0 mm 2 mps 746 mmHg 84%
04:00 +24°C° 0 mm 2 mps 746 mmHg 84%
05:00 +24°C° 0 mm 3 mps 746 mmHg 84%
06:00 +25°C° 0 mm 3 mps 746 mmHg 77%
07:00 +27°C° 0 mm 3 mps 746 mmHg 70%
08:00 +28°C° 0 mm 3 mps 746 mmHg 63%
09:00 +30°C° 0 mm 4 mps 746 mmHg 57%
10:00 +32°C° 0 mm 4 mps 747 mmHg 51%
11:00 +34°C° 0 mm 5 mps 747 mmHg 45%
12:00 +34°C° 0 mm 5 mps 747 mmHg 45%
13:00 +34°C° 0 mm 5 mps 746 mmHg 44%
14:00 +34°C° 0 mm 6 mps 746 mmHg 44%
15:00 +33°C° 0 mm 5 mps 746 mmHg 48%
16:00 +32°C° 0 mm 5 mps 746 mmHg 53%
17:00 +30°C° 0 mm 5 mps 746 mmHg 58%
18:00 +29°C° 0 mm 4 mps 746 mmHg 66%
19:00 +27°C° 0 mm 3 mps 746 mmHg 74%
20:00 +26°C° 0 mm 2 mps 747 mmHg 82%
21:00 +25°C° 0 mm 2 mps 747 mmHg 84%
22:00 +24°C° 0 mm 1 mps 747 mmHg 85%
23:00 +22°C° 0 mm 0 mps 747 mmHg 86%

Tomorrow, 11 August, Tuesday

Time Temperature Precipitation Wind Pressure Humidity
00:00 +24°C° 0 mm 1 mps 747 mmHg 87%
01:00 +23°C° 0 mm 1 mps 747 mmHg 87%
02:00 +23°C° 0 mm 1 mps 746 mmHg 88%
03:00 +23°C° 0 mm 1 mps 746 mmHg 88%
04:00 +23°C° 0 mm 2 mps 747 mmHg 88%
05:00 +23°C° 0 mm 2 mps 747 mmHg 88%
06:00 +25°C° 0 mm 2 mps 747 mmHg 81%
07:00 +26°C° 0 mm 2 mps 747 mmHg 73%
08:00 +28°C° 0 mm 3 mps 747 mmHg 66%
09:00 +30°C° 0 mm 3 mps 747 mmHg 59%
10:00 +32°C° 0 mm 4 mps 747 mmHg 52%
11:00 +34°C° 0 mm 4 mps 747 mmHg 45%
12:00 +34°C° 0 mm 5 mps 747 mmHg 46%
13:00 +34°C° 0 mm 5 mps 746 mmHg 46%
14:00 +34°C° 0 mm 6 mps 746 mmHg 46%
15:00 +33°C° 0 mm 6 mps 746 mmHg 50%
16:00 +32°C° 0 mm 5 mps 746 mmHg 54%
17:00 +30°C° 0 mm 5 mps 746 mmHg 57%
18:00 +29°C° 0 mm 4 mps 746 mmHg 65%
19:00 +27°C° 0 mm 3 mps 746 mmHg 72%
20:00 +25°C° 0 mm 2 mps 747 mmHg 80%
21:00 +25°C° 0 mm 2 mps 746 mmHg 82%
22:00 +24°C° 0 mm 1 mps 746 mmHg 85%
23:00 +24°C° 0 mm 1 mps 746 mmHg 87%

Day after tomorrow, 12 August, Wednesday

Time Temperature Precipitation Wind Pressure Humidity
00:00 +25°C° 0 mm 1 mps 746 mmHg 84%
01:00 +25°C° 0 mm 2 mps 746 mmHg 81%
02:00 +26°C° 0 mm 2 mps 745 mmHg 77%
03:00 +26°C° 0 mm 2 mps 745 mmHg 78%
04:00 +25°C° 0 mm 2 mps 745 mmHg 79%
05:00 +25°C° 0 mm 2 mps 745 mmHg 80%
06:00 +27°C° 0 mm 2 mps 746 mmHg 74%
07:00 +28°C° 0 mm 2 mps 746 mmHg 68%
08:00 +29°C° 0 mm 2 mps 746 mmHg 62%
09:00 +30°C° 0 mm 3 mps 746 mmHg 58%
10:00 +32°C° 0 mm 4 mps 746 mmHg 54%
11:00 +34°C° 0 mm 4 mps 746 mmHg 50%
12:00 +34°C° 0 mm 5 mps 745 mmHg 50%
13:00 +34°C° 0 mm 5 mps 745 mmHg 49%
14:00 +34°C° 0 mm 5 mps 745 mmHg 49%
15:00 +33°C° 0 mm 5 mps 745 mmHg 53%
16:00 +33°C° 0 mm 5 mps 745 mmHg 56%
17:00 +32°C° 0 mm 5 mps 744 mmHg 60%
18:00 +29°C° 0 mm 4 mps 745 mmHg 68%
19:00 +28°C° 0 mm 3 mps 745 mmHg 76%
20:00 +26°C° 0 mm 2 mps 746 mmHg 84%
21:00 +26°C° 0 mm 2 mps 746 mmHg 86%
22:00 +25°C° 0 mm 1 mps 746 mmHg 88%
23:00 +25°C° 0 mm 1 mps 745 mmHg 91%

13 August, Thursday

Time Temperature Precipitation Wind Pressure Humidity
00:00 +25°C° 0 mm 1 mps 745 mmHg 91%
01:00 +24°C° 0 mm 1 mps 745 mmHg 92%
02:00 +24°C° 0 mm 1 mps 745 mmHg 92%
03:00 +25°C° 0 mm 1 mps 745 mmHg 92%
04:00 +25°C° 0 mm 1 mps 745 mmHg 91%
05:00 +25°C° 0 mm 2 mps 745 mmHg 91%
06:00 +26°C° 0 mm 2 mps 745 mmHg 84%
07:00 +28°C° 0 mm 2 mps 745 mmHg 77%
08:00 +29°C° 0 mm 2 mps 745 mmHg 70%
09:00 +31°C° 0 mm 3 mps 745 mmHg 62%
10:00 +34°C° 0 mm 4 mps 745 mmHg 55%
11:00 +36°C° 0 mm 5 mps 745 mmHg 47%
12:00 +35°C° 0 mm 5 mps 744 mmHg 47%
13:00 +35°C° 0 mm 5 mps 744 mmHg 48%
14:00 +35°C° 0 mm 5 mps 743 mmHg 48%
15:00 +34°C° 0 mm 5 mps 743 mmHg 52%
16:00 +33°C° 0 mm 5 mps 743 mmHg 57%
17:00 +32°C° 0 mm 5 mps 743 mmHg 61%
18:00 +30°C° 0 mm 4 mps 743 mmHg 70%
19:00 +28°C° 0 mm 3 mps 744 mmHg 79%
20:00 +27°C° 0 mm 2 mps 744 mmHg 88%
21:00 +26°C° 0 mm 2 mps 744 mmHg 89%
22:00 +25°C° 0 mm 1 mps 744 mmHg 90%
23:00 +25°C° 0 mm 1 mps 744 mmHg 91%

14 August, Friday

Time Temperature Precipitation Wind Pressure Humidity
00:00 +24°C° 0 mm 1 mps 744 mmHg 91%
01:00 +24°C° 0 mm 1 mps 743 mmHg 90%
02:00 +24°C° 0 mm 1 mps 743 mmHg 90%
03:00 +24°C° 0 mm 1 mps 743 mmHg 91%
04:00 +24°C° 0 mm 1 mps 743 mmHg 91%
05:00 +24°C° 0 mm 2 mps 743 mmHg 92%
06:00 +26°C° 0 mm 2 mps 743 mmHg 84%
07:00 +28°C° 0 mm 2 mps 743 mmHg 75%
08:00 +30°C° 0 mm 2 mps 744 mmHg 67%
09:00 +33°C° 0 mm 3 mps 744 mmHg 57%
10:00 +34°C° 0 mm 4 mps 744 mmHg 48%
11:00 +36°C° 0 mm 5 mps 744 mmHg 39%
12:00 +36°C° 0 mm 5 mps 743 mmHg 39%
13:00 +36°C° 0 mm 5 mps 743 mmHg 40%
14:00 +36°C° 0 mm 6 mps 743 mmHg 40%
15:00 +35°C° 0 mm 5 mps 742 mmHg 44%
16:00 +34°C° 0 mm 5 mps 742 mmHg 49%
17:00 +33°C° 0 mm 4 mps 742 mmHg 53%
18:00 +30°C° 0 mm 3 mps 742 mmHg 65%
19:00 +28°C° 0 mm 2 mps 743 mmHg 76%
20:00 +26°C° 0 mm 1 mps 743 mmHg 87%
21:00 +25°C° 0 mm 1 mps 743 mmHg 88%
22:00 +23°C° 0 mm 0 mps 743 mmHg 88%
23:00 +22°C° 0 mm 0 mps 743 mmHg 89%

15 August, Saturday

Time Temperature Precipitation Wind Pressure Humidity
00:00 +24°C° 0 mm 1 mps 743 mmHg 89%
01:00 +24°C° 0 mm 1 mps 742 mmHg 89%
02:00 +24°C° 0 mm 1 mps 742 mmHg 90%
03:00 +24°C° 0 mm 1 mps 742 mmHg 90%
04:00 +24°C° 0 mm 1 mps 742 mmHg 91%
05:00 +24°C° 0 mm 2 mps 742 mmHg 91%
06:00 +26°C° 0 mm 2 mps 743 mmHg 83%
07:00 +28°C° 0 mm 2 mps 743 mmHg 74%
08:00 +30°C° 0 mm 3 mps 743 mmHg 66%
09:00 +33°C° 0 mm 3 mps 743 mmHg 56%
10:00 +35°C° 0 mm 4 mps 743 mmHg 47%
11:00 +37°C° 0 mm 4 mps 743 mmHg 38%
12:00 +37°C° 0 mm 5 mps 743 mmHg 40%
13:00 +37°C° 0 mm 5 mps 742 mmHg 41%
14:00 +38°C° 0 mm 6 mps 742 mmHg 43%
15:00 +36°C° 0 mm 5 mps 742 mmHg 46%
16:00 +35°C° 0 mm 5 mps 742 mmHg 49%
17:00 +34°C° 0 mm 4 mps 742 mmHg 52%
18:00 +31°C° 0 mm 3 mps 742 mmHg 64%
19:00 +29°C° 0 mm 3 mps 742 mmHg 75%
20:00 +26°C° 0 mm 2 mps 743 mmHg 86%
21:00 +26°C° 0 mm 1 mps 743 mmHg 87%
22:00 +25°C° 0 mm 1 mps 743 mmHg 88%
23:00 +22°C° 0 mm 0 mps 742 mmHg 89%
Show more